Flight Track Log - Related Links

Times and Time Zones

All times are in EDT time to prevent confusion due to time zone crossing. See the RPA3228 flight status page for this flight to view local times or setup timezone preferences in your user account.

Time Position Orientation Groundspeed Altitude Reporting Facility
EDT Latitude Longitude Course Direction KTS MPH feet Rate Location/Type
08:17AM 36.1167 -86.6833 64° Northeast 155 178 1,300  Level Nashville TRACON
08:17AM 36.0833 -86.6667 158° South 191 220 2,400 2,500 Climbing Nashville TRACON
08:18AM 36.0333 -86.6167 141° Southeast 263 303 5,300 3,365 Climbing Nashville TRACON
08:20AM 36.1871 -86.1572 80° East  Level FlightAware Approximate
08:20AM 36.0439 -86.4858 84° East 275 316 10,700  Level Memphis Center
08:21AM 36.2136 -86.0328 64° Northeast  Level FlightAware Approximate
08:21AM 36.0747 -86.4022 65° Northeast 280 322 13,400  Level Memphis Center
08:22AM 36.2601 -85.9165 64° Northeast  Level FlightAware Approximate
08:22AM 36.1150 -86.2975 65° Northeast 314 361 15,400  Level Memphis Center
08:23AM 36.1569 -86.1822 66° East 347 399 17,800 2,450 Climbing Memphis Center
08:24AM 36.2033 -86.0694 63° Northeast 361 415 20,300 1,914 Climbing Memphis Center
08:26AM 36.3161 -85.8119 61° Northeast 407 468 23,700 1,572 Climbing Indianapolis Center
08:27AM 36.3764 -85.6853 59° Northeast 421 484 25,200 1,463 Climbing Indianapolis Center
08:28AM 36.4383 -85.5519 60° Northeast 438 504 26,700 1,561 Climbing Indianapolis Center
08:29AM 36.5008 -85.4167 60° Northeast 446 513 28,400 1,258 Climbing Indianapolis Center
08:30AM 36.5472 -85.2703 68° East 454 522 29,300 1,016 Climbing Indianapolis Center
08:31AM 36.6053 -85.0906 68° East 463 533 30,500 1,016 Climbing Indianapolis Center
08:32AM 36.6528 -84.9381 69° East 470 541 31,400 823 Climbing Indianapolis Center
08:33AM 36.7008 -84.7839 69° East 473 544 32,200 780 Climbing Indianapolis Center
08:34AM 36.7492 -84.6289 69° East 477 549 33,000 390 Climbing Indianapolis Center
08:35AM 36.7972 -84.4747 69° East 475 547 33,000  Level Indianapolis Center
08:36AM 36.8450 -84.3206 69° East 475 547 33,000  Level Indianapolis Center
08:37AM 36.8931 -84.1672 69° East 474 545 33,000  Level Indianapolis Center
08:38AM 36.9506 -83.9847 68° East 481 554 33,000  Level Indianapolis Center
08:39AM 36.9975 -83.8294 69° East 480 552 33,000  Level Indianapolis Center
08:40AM 37.0444 -83.6733 69° East 477 549 33,000  Level Indianapolis Center
08:41AM 37.0919 -83.5183 69° East 476 548 33,000  Level Indianapolis Center
08:42AM 37.1394 -83.3614 69° East 476 548 33,000  Level Indianapolis Center
08:44AM 37.1853 -83.2058 70° East 475 547 33,000  Level Indianapolis Center
08:45AM 37.2325 -83.0481 69° East 474 545 33,000  Level Indianapolis Center
08:46AM 37.2786 -82.8911 70° East 473 544 33,000  Level Indianapolis Center
08:47AM 37.3250 -82.7325 70° East 478 550 33,000  Level Indianapolis Center
08:48AM 37.3767 -82.5497 70° East 475 547 33,000  Level Indianapolis Center
08:49AM 37.4231 -82.3928 70° East 476 548 33,000  Level Indianapolis Center
08:50AM 37.4683 -82.2364 70° East 475 547 33,000  Level Indianapolis Center
08:51AM 37.5142 -82.0794 70° East 476 548 33,000  Level Indianapolis Center
08:52AM 37.5592 -81.9214 70° East 478 550 33,000  Level Indianapolis Center
08:53AM 37.6028 -81.7636 71° East 476 548 33,000  Level Indianapolis Center
08:54AM 37.6475 -81.6061 70° East 477 549 33,000  Level Indianapolis Center
08:55AM 37.6908 -81.4481 71° East 474 545 33,000  Level Indianapolis Center
08:56AM 37.7417 -81.2642 71° East 474 545 33,000  Level Indianapolis Center
08:57AM 37.7853 -81.1119 70° East 475 547 33,000  Level Indianapolis Center
08:58AM 37.8417 -80.9531 66° East 475 547 33,000  Level Indianapolis Center
08:59AM 37.8947 -80.8017 66° East 474 545 33,000 -98 Level Indianapolis Center
09:00AM 37.9478 -80.6506 66° East 472 543 32,800 -789 Descending Indianapolis Center
09:01AM 37.9944 -80.5300 64° Northeast 471 542 31,500 -1,527 Descending Washington Center
09:02AM 38.0486 -80.3753 66° East 471 542 30,000 -1,462 Descending Washington Center
09:03AM 38.1006 -80.2228 67° East 471 542 28,600 -984 Descending Washington Center
09:04AM 38.1542 -80.0756 65° Northeast 466 536 28,000 -298 Descending Washington Center
09:05AM 38.2100 -79.9178 66° East 459 528 28,000  Level Washington Center
09:06AM 38.2611 -79.7672 67° East 459 528 28,000  Level Washington Center
09:07AM 38.3142 -79.6222 65° Northeast 449 517 28,000  Level Washington Center
09:08AM 38.3647 -79.4764 66° East 449 517 28,000  Level Washington Center
09:09AM 38.4108 -79.3411 66° East 455 524 28,000 -50 Level Washington Center
09:10AM 38.4447 -79.1892 74° East 450 518 27,900 -992 Descending Washington Center
09:11AM 38.4722 -79.0367 77° East 445 512 26,000 -942 Descending Washington Center
09:12AM 38.4972 -78.8839 78° East 438 504 26,000 -934 Level Washington Center
09:13AM 38.5200 -78.7336 79° East 433 498 24,100 -1,785 Descending Washington Center
09:14AM 38.5403 -78.5911 80° East 421 484 22,400 -1,373 Descending Washington Center
09:15AM 38.5647 -78.4486 78° East 409 471 21,400 -1,261 Descending Washington Center
09:16AM 38.5867 -78.3142 78° East 403 464 19,900 -1,623 Descending Washington Center
09:17AM 38.6208 -78.1825 72° East 392 451 18,100 -1,714 Descending Washington Center
09:18AM 38.6589 -78.0589 68° East 379 436 16,500 -1,714 Descending Washington Center
09:19AM 38.6967 -77.9378 68° East 368 423 14,700 -1,736 Descending Washington Center
09:20AM 38.7364 -77.8272 65° Northeast 354 407 13,000 -1,525 Descending Washington Center
09:21AM 38.7900 -77.7436 51° Northeast 320 368 11,700 -1,300 Descending Washington Center
09:22AM 38.8456 -77.6653 48° Northeast 304 350 10,400 -1,279 Descending Washington Center
09:23AM 38.9011 -77.5842 49° Northeast 279 321 9,100 -1,140 Descending Washington Center
09:24AM 38.9417 -77.5186 51° Northeast 267 307 8,100 -560 Descending Washington Center
09:25AM 38.9000 -77.4000 114° Southeast 224 258 7,700 -462 Descending Potomac TRACON
09:26AM 38.8667 -77.3500 131° Southeast 223 257 7,000 -350 Descending Potomac TRACON
09:27AM 38.8167 -77.2833 134° Southeast 222 255 7,000  Level Potomac TRACON
09:28AM 38.8000 -77.2167 108° East 226 260 7,000 -421 Level Potomac TRACON
09:29AM 38.8500 -77.2000 15° North 228 262 6,200 -500 Descending Potomac TRACON
09:30AM 38.8833 -77.2333 322° Northwest 208 239 6,000 -211 Descending Potomac TRACON
09:31AM 38.9333 -77.2833 322° Northwest 200 230 5,800 -526 Descending Potomac TRACON
09:32AM 38.9667 -77.3167 322° Northwest 183 211 5,000 -400 Descending Potomac TRACON
09:33AM 39.0167 -77.3500 333° Northwest 191 220 5,000  Level Potomac TRACON
09:34AM 39.0667 -77.3167 27° Northeast 207 238 5,000 -350 Level Potomac TRACON
09:35AM 39.0333 -77.2500 123° Southeast 181 208 4,300 -887 Descending Potomac TRACON
09:36AM 39.0167 -77.2167 123° Southeast 175 201 3,300 -730 Descending Potomac TRACON
09:37AM 38.9833 -77.1667 131° Southeast 176 203 2,900 -400 Descending Potomac TRACON

Login

Don't have an account? Register now (free) for customized features, flight alerts, and more!